Kentucky Lake Weather Center

Moon Phase Calendar



Kentucky Lake Water Level
Online Cameras

 


      

Current Conditions in Paris
11/27/2022 7:18:18 PM

48°F
Feels Like 44
Clouds
Humidity
91%
Pressure
29.85"
Wind
9.2 mph (WNW)
Dew Point
45°F
UV Index
0/10 (Low)
Visibility
6 mi

Hourly Forecast

Date & Time Sun, Nov 27
7:00 PM
Sun, Nov 27
8:00 PM
Sun, Nov 27
9:00 PM
Sun, Nov 27
10:00 PM
Sun, Nov 27
11:00 PM
Mon, Nov 28
12:00 AM
Mon, Nov 28
1:00 AM
Mon, Nov 28
2:00 AM
Mon, Nov 28
3:00 AM
Mon, Nov 28
4:00 AM
Mon, Nov 28
5:00 AM
Mon, Nov 28
6:00 AM
Mon, Nov 28
7:00 AM
Mon, Nov 28
8:00 AM
Mon, Nov 28
9:00 AM
Mon, Nov 28
10:00 AM
Mon, Nov 28
11:00 AM
Mon, Nov 28
12:00 PM
Mon, Nov 28
1:00 PM
Mon, Nov 28
2:00 PM
Mon, Nov 28
3:00 PM
Mon, Nov 28
4:00 PM
Mon, Nov 28
5:00 PM
Mon, Nov 28
6:00 PM
Mon, Nov 28
7:00 PM
Mon, Nov 28
8:00 PM
Mon, Nov 28
9:00 PM
Mon, Nov 28
10:00 PM
Mon, Nov 28
11:00 PM
Tue, Nov 29
12:00 AM
Tue, Nov 29
1:00 AM
Tue, Nov 29
2:00 AM
Tue, Nov 29
3:00 AM
Tue, Nov 29
4:00 AM
Tue, Nov 29
5:00 AM
Tue, Nov 29
6:00 AM
Tue, Nov 29
7:00 AM
Tue, Nov 29
8:00 AM
Tue, Nov 29
9:00 AM
Tue, Nov 29
10:00 AM
Tue, Nov 29
11:00 AM
Tue, Nov 29
12:00 PM
Tue, Nov 29
1:00 PM
Tue, Nov 29
2:00 PM
Tue, Nov 29
3:00 PM
Tue, Nov 29
4:00 PM
Tue, Nov 29
5:00 PM
Tue, Nov 29
6:00 PM
Condition
Clouds

Clouds

Clouds

Clouds

Clouds

Clouds

Clouds

Clouds

Clouds

Clouds

Clouds

Clouds

Clouds

Clouds

Clouds

Clouds

Clouds

Clouds

Clouds

Clouds

Clouds

Clouds

Clouds

Clouds

Clear

Clear

Clear

Clouds

Clouds

Clouds

Clouds

Clouds

Clouds

Clouds

Clouds

Clouds

Clouds

Clouds

Clouds

Clouds

Clouds

Clouds

Clouds

Rain

Rain

Rain

Rain

Rain
Temperature 48°F48°F47°F47°F44°F42°F41°F41°F40°F43°F44°F44°F43°F45°F48°F52°F54°F55°F57°F57°F57°F54°F50°F49°F48°F47°F47°F46°F46°F46°F46°F47°F47°F47°F47°F47°F48°F51°F55°F58°F61°F63°F63°F63°F60°F59°F59°F59°F
Feels Like 44°F44°F44°F44°F41°F39°F38°F38°F38°F41°F42°F43°F40°F42°F45°F50°F52°F53°F55°F55°F55°F53°F48°F48°F46°F45°F44°F43°F42°F42°F43°F44°F43°F43°F43°F43°F44°F50°F53°F57°F60°F62°F61°F62°F59°F59°F59°F59°F
Cloudiness 100%100%100%100%91%75%12%11%13%33%46%55%68%46%33%26%24%30%58%51%44%40%32%27%0%0%1%19%31%39%100%100%100%100%100%100%100%100%100%100%100%100%100%100%100%100%100%100%
Visibility 6 mi6 mi6 mi6 mi6 mi6 mi6 mi6 mi6 mi6 mi6 mi6 mi6 mi6 mi6 mi6 mi6 mi6 mi6 mi6 mi6 mi6 mi6 mi6 mi6 mi6 mi6 mi6 mi6 mi6 mi6 mi6 mi6 mi6 mi6 mi6 mi6 mi6 mi6 mi6 mi6 mi6 mi6 mi6 mi6 mi6 mi6 mi6 mi
Precipitation 0%0%0%0%0%0%0%0%0%0%0%0%0%0%0%0%0%0%0%0%0%0%0%0%0%0%0%0%0%0%0%0%0%0%0%0%0%0%0%0%0%0%0%36%79%100%100%100%
Humidity 91%89%87%85%88%93%94%95%94%88%86%85%89%84%75%67%62%59%57%56%57%66%75%78%81%84%86%87%88%88%87%85%85%84%86%87%87%83%75%67%59%54%55%56%67%78%81%85%
Dew Point 45°F45°F44°F43°F41°F40°F40°F39°F39°F39°F40°F40°F40°F40°F41°F41°F41°F41°F41°F42°F42°F43°F42°F42°F42°F42°F42°F42°F42°F42°F42°F43°F43°F43°F43°F44°F44°F46°F47°F47°F46°F46°F46°F47°F49°F52°F53°F55°F
Pressure 29.85"29.85"29.85"29.88"29.91"29.91"29.94"29.94"29.94"29.97"29.97"29.97"29.97"30"30.03"30.03"30.03"30"29.97"29.97"29.97"30"30"30"30.03"30.03"30.03"30"30"30"30"30"30"30"30"30"30"30"30"30"29.94"29.91"29.85"29.83"29.83"29.85"29.83"29.83"
Wind Speed 9.2 mph7.9 mph6.6 mph6.2 mph5.4 mph5.1 mph4.7 mph4.3 mph4 mph3.6 mph3 mph3.1 mph4.3 mph5 mph6.8 mph7.5 mph8 mph7.2 mph7.3 mph7.2 mph6.6 mph3.7 mph3 mph4.1 mph4.8 mph5.7 mph6.1 mph6.7 mph6.4 mph6.4 mph6.6 mph7.4 mph8.3 mph8.6 mph8.7 mph9.6 mph11.1 mph12.3 mph13.8 mph15 mph15.7 mph15.3 mph14.4 mph12.5 mph11.3 mph14.4 mph15.5 mph16.4 mph
Wind
Direction
299°
WNW
298°
WNW
290°
WNW
283°
WNW
271°
W
274°
W
273°
W
276°
W
265°
W
251°
WSW
230°
SW
206°
SSW
205°
SSW
213°
SSW
226°
SW
240°
WSW
247°
WSW
244°
WSW
240°
WSW
235°
SW
233°
SW
230°
SW
198°
SSW
165°
SSE
161°
SSE
156°
SSE
153°
SSE
147°
SSE
153°
SSE
156°
SSE
164°
SSE
163°
SSE
161°
SSE
161°
SSE
162°
SSE
164°
SSE
166°
SSE
170°
S
177°
S
178°
S
177°
S
174°
S
167°
SSE
177°
S
173°
S
173°
S
172°
S
172°
S

Daily Forecast

Date High Low Precip. Humidity
Today
Nov 27

Rain
63 °F
44 °F
100%
81%
Monday
Nov 28

Clouds
57 °F
40 °F
0%
62%
Tuesday
Nov 29

Rain
63 °F
46 °F
100%
54%
Wednesday
Nov 30

Rain
64 °F
33 °F
100%
57%
Thursday
Dec 1

Clouds
44 °F
26 °F
0%
31%
Friday
Dec 2

Clouds
55 °F
35 °F
0%
41%
Saturday
Dec 3

Rain
62 °F
54 °F
38%
93%
Sunday
Dec 4

Rain
55 °F
52 °F
100%
96%
Monday
Dec 5

Rain
68 °F
54 °F
100%
98%
Tuesday
Dec 6

Rain
67 °F
36 °F
98%
71%
Wednesday
Dec 7

Rain
40 °F
31 °F
46%
61%
Thursday
Dec 8

Rain
41 °F
32 °F
71%
68%
Friday
Dec 9

Clouds
31 °F
25 °F
0%
35%
Saturday
Dec 10

Clouds
34 °F
21 °F
0%
27%
Sunday
Dec 11

Clouds
38 °F
24 °F
0%
41%
Monday
Dec 12

Clouds
41 °F
22 °F
0%
30%

Temperature 8-14 Day Outlook



Precipitation 8-14 Day Outlook




Quick Links
Kentucky Lake News
Kentucky Lake Photos
Kentucky Lake Videos




About Us
Contact Us
Site Map
Search Site
Advertise With Us
   
www.GoKentuckyLake.com
THE KENTUCKY LAKE WEBSITE

Copyright 2022, Lakes Online
Privacy    |    Legal